Location: Lombard
(41.8800°N, 88.0080°W)
Time: 11:54:31
(UTC-05:00)

A-11 Canister half - Pass Details

Date: 03 February 2023
Orbit: 1512 x 1687 km, 47.2° (Epoch: 20 March)

Event Time Altitude Azimuth Distance (km) Brightness Sun altitude
Rises 18:34:19 0° 293° (WNW) 4,684 12.6 -16.0°
Reaches altitude 10° 18:38:03 10° 281° (W) 3,684 12.1 -16.7°
Maximum altitude 18:45:03 25° 231° (SW) 2,676 10.9 -18.0°
Drops below altitude 10° 18:52:04 10° 181° (S) 3,666 11.0 -19.3°
Sets 18:55:47 0° 168° (SSE) 4,657 11.5 -20.0°
